Find Starlink 38210

NORAD ID: 100553 Int'l Des: 2026-200 Owner: SPXS Country: US Constellation: starlink operational

当前视图

正在加载3D地球...

About Starlink 38210

Starlink 38210 (NORAD 100553) is a starlink constellation satellite launched Sep 2, 2026 by SPXS of US. with a mass of 575.00 kg.

即将过境

Passes for default location (London). Set your location on the main map for personalized predictions.

高度历史

Loading altitude history...

两行轨道根数

1 A0553U 26200V 26263.81221706 .00178126 00000-0 10445-2 0 9990
2 A0553 69.9990 134.4612 0004321 253.1274 106.9452 15.77622569 2933
Epoch: Sep 20, 2026 • Age: 10 hours

当前状态

高度 340.2 km
远地点 / 近地点 N/A
速度 7.71 km/s
星下点 27.17°N, 136.42°W
发射日期 Sep 2, 2026
运行时间 18 days
类型 internet

技术详情

分类 Payload
质量 575.00 kg
干质量 530.00 kg
长度 0.30 m
跨度 29.00 m
形状 ? Box + pan
制造商 SPXS
平台类型 Starlink V2MO
阶段状态 In Orbit
所有者/国家 SPXS/US

Most Searched